Location: Unspecified
(0.0000°N, 0.0000°E)
Time: 04:14:13
(UTC+00:00)

ARIANE 1 DEB - Pass Details

Date: 19 February 2026
Orbit: 376 x 19604 km, 19.8° (Epoch: 20 January)

Event Time Altitude Azimuth Distance (km) Brightness Sun altitude
Rises 14:12:46 0° 277° (W) 14,843 ? 58.4°
Reaches altitude 10° 14:27:35 10° 281° (WNW) 16,352 ? 55.0°
Maximum altitude 18:32:09 70° 13° (NNE) 6,267 ? -4.5°
Drops below altitude 10° 18:50:10 10° 95° (E) 4,851 ? -8.9°
Enters shadow 18:50:39 - 96° (E) 4,929 ? -9.0°
